Regional Weather Roundup
Issued by NWS Charleston, SC

Current Version | Previous Version | Graphics & Text | Print | Product List | Glossary On
Versions: 1 2 3 4 5 6 7 8 9 10 11 12 13 14 15 16 17 18 19 20 21 22 23 24 25 26 27 28 29 30 31 32 33 34 35 36 37 38 39 40 41 42 43 44 45 46 47 48 49 50
000
ASUS42 KCHS 261628
RWRCHS

REGIONAL WEATHER ROUNDUP
NATIONAL WEATHER SERVICE CHARLESTON SC
1200 PM EDT TUE JUL 26 2016

NOTE: "FAIR" INDICATES FEW OR NO CLOUDS BELOW 12,000 FEET WITH NO
SIGNIFICANT WEATHER AND/OR OBSTRUCTIONS TO VISIBILITY.

NOT ALL STATIONS ARE QUALITY CONTROLLED. USE DATA WITH CAUTION...
ESPECIALLY DEWPOINT OBSERVATIONS.

SCZ027-030-031-034>040-042>050-261700-
...SOUTHEAST SOUTH CAROLINA...

CITY           SKY/WX    TMP DP  RH WIND       PRES   REMARKS
N CHARLESTON   MOSUNNY   93  73  52 W7        30.06S HX 102
WATERFRONT PRK   N/A     88  75  65 VRB3      30.05S HX  97
MOUNT PLEASANT FAIR      91  72  52 W5        30.06F HX  98
JOHNS ISLAND   FAIR      93  73  52 SW6       30.06F HX 102
PINOPOLIS        N/A     88  75  66 VRB2      29.98F HX  97
MONCKS CORNER  FAIR      90  70  51 CALM      30.05F HX  95
SUMMERVILLE    FAIR      91  73  55 W3        30.06F HX 100
BEAUFORT MCAS  MOSUNNY   94  73  50 SW8       30.07F HX 103
BEAUFORT ARPT  FAIR      90  72  55 W6        30.07S HX  96
HILTON HEAD IS SUNNY     97  72  44 W5        30.09R HX 105
WALTERBORO     SUNNY     93  70  46 W7        30.06F HX  99
ALLENDALE      FAIR      91  70  49 VRB5      30.05F HX  97

...SOUTHERN MIDLANDS AND PEE DEE...

CITY           SKY/WX    TMP DP  RH WIND       PRES   REMARKS
GEORGETOWN     FAIR      90  72  55 SW7       30.06F HX  96
KINGSTREE      FAIR      91  72  52 S7        30.04F HX  98
ORANGEBURG     SUNNY     92  72  51 W10       30.06S HX  99
BARNWELL       NOT AVBL
AIKEN          FAIR      91  70  49 W8        30.09F HX  97
MANNING        FAIR      90  73  58 S3        30.04F HX  98
COLUMBIA       MOSUNNY   94  72  48 S6        30.03F HX 102
SUMTER         SUNNY     91  74  59 VRB6      30.02F HX 100
FLORENCE       SUNNY     90  74  59 SW8       30.04F HX  99
MYRTLE BEACH   SUNNY     90  70  51 SW12      30.07S HX  95
N MYRTLE BEACH SUNNY     87  77  72 S13       30.05S HX  99

$$

GAZ063-065-086>088-099>101-113>116-118-119-134>141-150-261700-
...SOUTHEAST GEORGIA...

CITY           SKY/WX    TMP DP  RH WIND       PRES   REMARKS
SAVANNAH ARPT  MOSUNNY   91  70  49 SW3       30.08S HX  96
HUNTER AAF     MOSUNNY   91  77  64 W5        30.06S HX 103
FORT STEWART   SUNNY     90  73  58 VRB1      30.05  HX  98
STATESBORO     SUNNY     91  74  57 CALM      30.08S HX 100
SYLVANIA       NOT AVBL
CLAXTON        FAIR      91  73  54 CALM      30.08S HX  99

...CSRA...CENTRAL AND FAR SOUTHEAST GEORGIA...

CITY           SKY/WX    TMP DP  RH WIND       PRES   REMARKS
THOMSON        NOT AVBL
AUGUSTA-BUSH   SUNNY     95  69  42 VRB5      30.05S HX 100
AUGUSTA-DANIEL SUNNY     93  69  45 S9        30.07F HX  98
SWAINSBORO     FAIR      91  68  46 CALM      30.08F HX  95
VIDALIA        PTSUNNY   91  70  49 CALM      30.08F HX  97
EASTMAN        FAIR      89  59  36 CALM      30.10F
HAZLEHURST     FAIR      92  73  53 CALM      30.07F HX 101
ALMA           MOSUNNY   89  72  56 CALM      30.08F HX  96
WAYCROSS       MOSUNNY   94  75  54 SE3       30.08F HX 106
JESUP          FAIR      91  77  62 S6        30.08F HX 105
BAXLEY         FAIR      90  75  62 SW5       30.08S HX 100
BRUNSWICK      PTSUNNY   91  75  59 CALM      30.09F HX 102
SAINT SIMONS   SUNNY     89  74  60 S8        30.09S HX  98

$$

SCZ027-028-034-036>038-045-046-048>050-GAZ119-141-261700-
...LAKE AND SUPPLEMENTAL COASTAL OBSERVATIONS...

STATION/POSITION TIME  TEMP    WIND        PRES    WAVE   SWELL
                       AIR SEA DIR/SP/G            HT/PER HT/PER/DIR
                 (UTC) (F)     (DEG/KT/KT) (MB)    (FT/S) (FT/S/D)
WINYAH BAY       1500   88     260/  6     1017.0
LAKE MURRAY      NOT AVBL
ACE BASIN NERRS  1500   89     290/  2     1018.0S
FORT PULASKI     1600   88 87  300/  3/  4 1018.9F
SAPELO ISLAND    1600   90     170/  5     1019.0S

$$

ANZ835-935-AMZ111-154-330-350-352-354-370-450-454-472-261700-
...C-MAN AND BUOY OBSERVATIONS...

STATION/POSITION TIME  TEMP    WIND        PRES    WAVE   SWELL
                       AIR SEA DIR/SP/G            HT/PER HT/PER/DIR
                 (UTC) (F)     (DEG/KT/KT) (MB)    (FT/S) (FT/S/D)
BUOY 41004       1550   85 86  250/ 10/ 12 1018.1S   2/ 4   2/140/ 8
BUOY 41008       1550   84 87  210/  4/  6 1019.0S   2/ 5   2/170/ 5
FOLLY BEACH CMAN 1600   85     190/ 10/ 11 1018.4F
CAPERS NEARSHORE 1608   84 84  220/ 10/ 12 1017.9F
FRIPP NEARSHORE  1608   85 86  220/  8/ 12 1018.0S


STATION/POSITION TIME  TEMP    WIND        PRES    WAVE   SWELL
                       AIR SEA DIR/SP/G            HT/PER HT/PER/DIR
                 (UTC) (F)     (DEG/KT/KT) (MB)    (FT/S) (FT/S/D)
5E ST. MARYS GA  1601      87                N/A     2/ 8
FRYING PAN BUOY  1600   84 85  240/ 10/ 12 1017.9F
BUOY 41025       1550   83 84  240/ 19/ 23 1016.1F   5/ 6
CAPE LOOKOUT NC  1600   85     240/ 12/ 16 1016.9S
BUOY 41002       1550   83 84  230/ 12/ 14 1019.2R   3/ 4   2/130/ 8
BUOY 41010       1520   85 86  220/  4/  6 1019.9R
ST AUGUSTINE FL  1600   83 85  120/  9/ 10 1020.1R


$$




USA.gov is the U.S. government's official web portal to all federal, state and local government web resources and services.